| time (UTC) | temp F | wind direction | speed MPH | gust MPH | rain 1hr in | rain 24hr in | rain mn in | humidity % | barometer mb |
| 20260503010402 | 71 | 23 | 0.0 | 0.0 | 0.00 | 0.19 | 0.00 | 61 | 1019.3 |
| 20260503005825 | 71 | 23 | 0.0 | 0.0 | 0.00 | 0.19 | 0.00 | 59 | 1019.3 |
| 20260503005351 | 71 | 23 | 0.0 | 0.0 | 0.00 | 0.19 | 0.00 | 59 | 1019.3 |
| 20260503004857 | 72 | 23 | 0.0 | 0.0 | 0.00 | 0.19 | 0.00 | 58 | 1019.1 |
| 20260503004323 | 72 | 23 | 0.0 | 0.0 | 0.00 | 0.19 | 0.00 | 56 | 1019.1 |
| 20260503003850 | 72 | 32 | 0.0 | 2.0 | 0.00 | 0.19 | 0.00 | 55 | 1019.1 |
| 20260503003356 | 73 | 32 | 0.0 | 3.0 | 0.00 | 0.19 | 0.00 | 55 | 1019.0 |
| 20260503002822 | 73 | 352 | 0.0 | 1.0 | 0.00 | 0.19 | 0.00 | 54 | 1019.0 |
| 20260503002331 | 73 | 352 | 0.0 | 2.0 | 0.00 | 0.27 | 0.00 | 54 | 1019.0 |
| 20260503001841 | 74 | 352 | 0.0 | 3.0 | 0.00 | 0.27 | 0.00 | 54 | 1018.9 |
| 20260503001347 | 74 | 81 | 1.0 | 3.0 | 0.00 | 0.27 | 0.00 | 53 | 1018.9 |
| 20260503000832 | 74 | 37 | 0.0 | 2.0 | 0.00 | 0.27 | 0.00 | 52 | 1018.9 |
| 20260503000400 | 74 | 10 | 0.0 | 3.0 | 0.00 | 0.27 | 0.00 | 52 | 1018.6 |
| 20260502235844 | 74 | 51 | 1.0 | 5.0 | 0.00 | 0.27 | 0.00 | 50 | 1018.6 |
| 20260502235327 | 74 | 319 | 3.0 | 5.0 | 0.00 | 0.27 | 0.00 | 49 | 1018.6 |
| 20260502234833 | 75 | 63 | 0.0 | 5.0 | 0.00 | 0.27 | 0.00 | 51 | 1018.6 |
| 20260502234339 | 75 | 350 | 3.0 | 5.0 | 0.00 | 0.27 | 0.00 | 49 | 1018.6 |
| 20260502233825 | 75 | 358 | 1.0 | 5.0 | 0.00 | 0.27 | 0.00 | 49 | 1018.6 |
| 20260502233331 | 75 | 61 | 0.0 | 9.0 | 0.00 | 0.27 | 0.00 | 50 | 1018.7 |
| 20260502232858 | 75 | 353 | 5.0 | 9.0 | 0.00 | 0.27 | 0.00 | 48 | 1018.7 |
| 20260502232321 | 75 | 336 | 3.0 | 7.0 | 0.00 | 0.41 | 0.00 | 49 | 1018.7 |
| 20260502231831 | 76 | 9 | 1.0 | 7.0 | 0.00 | 0.41 | 0.00 | 49 | 1018.6 |
| 20260502231321 | 76 | 5 | 2.0 | 5.0 | 0.00 | 0.41 | 0.00 | 48 | 1018.6 |
| 20260502230850 | 76 | 350 | 2.0 | 6.0 | 0.00 | 0.41 | 0.00 | 48 | 1018.6 |
| 20260502230335 | 76 | 10 | 3.0 | 6.0 | 0.00 | 0.41 | 0.00 | 48 | 1018.6 |
| 20260502225900 | 76 | 40 | 2.0 | 6.0 | 0.00 | 0.41 | 0.00 | 48 | 1018.6 |
| 20260502225326 | 76 | 6 | 2.0 | 6.0 | 0.00 | 0.41 | 0.00 | 48 | 1018.6 |
| 20260502224832 | 77 | 9 | 1.0 | 6.0 | 0.00 | 0.41 | 0.00 | 47 | 1018.5 |
| 20260502224338 | 77 | 274 | 2.0 | 6.0 | 0.00 | 0.41 | 0.00 | 49 | 1018.5 |
| 20260502223847 | 77 | 340 | 1.0 | 5.0 | 0.00 | 0.41 | 0.00 | 50 | 1018.5 |
| 20260502223335 | 77 | 5 | 1.0 | 5.0 | 0.00 | 0.41 | 0.00 | 49 | 1018.8 |
| 20260502222841 | 76 | 310 | 3.0 | 6.0 | 0.00 | 0.41 | 0.00 | 48 | 1018.8 |
| 20260502222326 | 76 | 66 | 1.0 | 6.0 | 0.00 | 0.43 | 0.00 | 48 | 1018.8 |
| 20260502221833 | 76 | 47 | 2.0 | 6.0 | 0.00 | 0.43 | 0.00 | 49 | 1019.0 |
| 20260502221340 | 76 | 298 | 3.0 | 6.0 | 0.00 | 0.43 | 0.00 | 47 | 1019.0 |
| 20260502220829 | 76 | 334 | 3.0 | 5.0 | 0.00 | 0.43 | 0.00 | 48 | 1019.0 |
| 20260502220336 | 76 | 92 | 2.0 | 5.0 | 0.00 | 0.43 | 0.00 | 46 | 1018.8 |
| 20260502215820 | 76 | 71 | 2.0 | 5.0 | 0.00 | 0.43 | 0.00 | 49 | 1018.8 |
| 20260502215329 | 76 | 94 | 3.0 | 6.0 | 0.00 | 0.43 | 0.00 | 50 | 1018.8 |
| 20260502214835 | 76 | 81 | 2.0 | 7.0 | 0.00 | 0.43 | 0.00 | 49 | 1019.0 |
| 20260502214401 | 76 | 291 | 2.0 | 7.0 | 0.00 | 0.43 | 0.00 | 49 | 1019.0 |
| 20260502213826 | 75 | 45 | 2.0 | 7.0 | 0.00 | 0.43 | 0.00 | 51 | 1019.0 |
| 20260502213334 | 75 | 22 | 2.0 | 7.0 | 0.00 | 0.43 | 0.00 | 49 | 1019.1 |
| 20260502212840 | 76 | 342 | 2.0 | 5.0 | 0.00 | 0.43 | 0.00 | 49 | 1019.1 |
| 20260502212326 | 75 | 349 | 1.0 | 5.0 | 0.00 | 0.49 | 0.00 | 51 | 1019.1 |
| 20260502211856 | 75 | 35 | 1.0 | 4.0 | 0.00 | 0.49 | 0.00 | 50 | 1019.1 |
| 20260502211401 | 75 | 6 | 2.0 | 5.0 | 0.00 | 0.49 | 0.00 | 49 | 1019.1 |
| 20260502210847 | 76 | 359 | 2.0 | 5.0 | 0.00 | 0.49 | 0.00 | 48 | 1019.1 |
| 20260502210336 | 76 | 229 | 2.0 | 5.0 | 0.00 | 0.49 | 0.00 | 49 | 1019.2 |
| 20260502205820 | 75 | 75 | 1.0 | 5.0 | 0.00 | 0.49 | 0.00 | 51 | 1019.2 |
| 20260502205329 | 75 | 91 | 0.0 | 5.0 | 0.00 | 0.49 | 0.00 | 50 | 1019.2 |
| 20260502204835 | 75 | 358 | 2.0 | 5.0 | 0.00 | 0.49 | 0.00 | 50 | 1019.4 |
| 20260502204324 | 75 | 224 | 2.0 | 10.0 | 0.00 | 0.49 | 0.00 | 50 | 1019.4 |
| 20260502203829 | 75 | 357 | 3.0 | 10.0 | 0.00 | 0.49 | 0.00 | 51 | 1019.4 |
| 20260502203335 | 75 | 77 | 1.0 | 11.0 | 0.00 | 0.49 | 0.00 | 51 | 1019.6 |
| 20260502202821 | 75 | 334 | 6.0 | 11.0 | 0.00 | 0.49 | 0.00 | 48 | 1019.6 |
| 20260502202328 | 75 | 61 | 1.0 | 7.0 | 0.00 | 0.62 | 0.00 | 49 | 1019.6 |
| 20260502201834 | 75 | 22 | 3.0 | 6.0 | 0.00 | 0.62 | 0.00 | 48 | 1019.6 |
| 20260502201344 | 75 | 67 | 2.0 | 6.0 | 0.00 | 0.62 | 0.00 | 51 | 1019.6 |
| 20260502200849 | 75 | 55 | 2.0 | 9.0 | 0.00 | 0.62 | 0.00 | 50 | 1019.6 |
| 20260502200334 | 75 | 11 | 1.0 | 9.0 | 0.00 | 0.62 | 0.00 | 51 | 1019.7 |
| 20260502195839 | 74 | 106 | 2.0 | 9.0 | 0.00 | 0.62 | 0.00 | 52 | 1019.7 |
| 20260502195325 | 74 | 41 | 3.0 | 11.0 | 0.00 | 0.62 | 0.00 | 50 | 1019.7 |
| 20260502194852 | 74 | 337 | 3.0 | 11.0 | 0.00 | 0.62 | 0.00 | 52 | 1020.1 |
| 20260502194336 | 74 | 66 | 4.0 | 11.0 | 0.00 | 0.62 | 0.00 | 52 | 1020.1 |
| 20260502193822 | 74 | 335 | 3.0 | 7.0 | 0.00 | 0.62 | 0.00 | 50 | 1020.1 |
| 20260502193328 | 74 | 310 | 3.0 | 6.0 | 0.00 | 0.62 | 0.00 | 50 | 1020.1 |
| 20260502192837 | 74 | 54 | 2.0 | 7.0 | 0.00 | 0.62 | 0.00 | 53 | 1020.1 |
| 20260502192343 | 74 | 10 | 2.0 | 7.0 | 0.00 | 0.77 | 0.00 | 53 | 1020.1 |
| 20260502191827 | 74 | 348 | 1.0 | 10.0 | 0.00 | 0.77 | 0.00 | 53 | 1020.2 |
| 20260502191332 | 73 | 309 | 1.0 | 10.0 | 0.00 | 0.77 | 0.00 | 51 | 1020.2 |
| 20260502190841 | 73 | 344 | 2.0 | 7.0 | 0.00 | 0.77 | 0.00 | 55 | 1020.2 |
| 20260502190347 | 72 | 125 | 1.0 | 6.0 | 0.00 | 0.77 | 0.00 | 54 | 1020.4 |
| 20260502185833 | 72 | 348 | 3.0 | 10.0 | 0.00 | 0.77 | 0.00 | 52 | 1020.4 |
| 20260502185338 | 72 | 108 | 2.0 | 10.0 | 0.00 | 0.77 | 0.00 | 52 | 1020.4 |
| 20260502184822 | 73 | 51 | 3.0 | 9.0 | 0.00 | 0.77 | 0.00 | 52 | 1020.7 |
| 20260502184328 | 73 | 66 | 1.0 | 12.0 | 0.00 | 0.77 | 0.00 | 53 | 1020.7 |
| 20260502183832 | 72 | 1 | 3.0 | 11.0 | 0.00 | 0.77 | 0.00 | 53 | 1020.6 |
| 20260502183401 | 72 | 278 | 3.0 | 11.0 | 0.00 | 0.77 | 0.00 | 52 | 1020.8 |
| 20260502182333 | 72 | 52 | 2.0 | 7.0 | 0.00 | 0.88 | 0.00 | 55 | 1020.8 |
| 20260502181838 | 72 | 11 | 2.0 | 8.0 | 0.00 | 0.88 | 0.00 | 55 | 1021.0 |
| 20260502181330 | 72 | 49 | 2.0 | 9.0 | 0.00 | 0.88 | 0.00 | 54 | 1021.0 |
| 20260502180836 | 71 | 60 | 2.0 | 7.0 | 0.00 | 0.88 | 0.00 | 55 | 1021.0 |
| 20260502180340 | 71 | 60 | 3.0 | 7.0 | 0.00 | 0.88 | 0.00 | 56 | 1021.1 |
| 20260502170326 | 69 | 317 | 3.0 | 12.0 | 0.00 | 0.97 | 0.00 | 60 | 1021.2 |
| 20260502164326 | 68 | 36 | 2.0 | 7.0 | 0.00 | 0.97 | 0.00 | 60 | 1021.3 |
| 20260502163830 | 68 | 75 | 3.0 | 8.0 | 0.00 | 0.97 | 0.00 | 61 | 1021.3 |
| 20260502163335 | 68 | 44 | 4.0 | 8.0 | 0.00 | 0.97 | 0.00 | 61 | 1021.2 |
| 20260502162822 | 68 | 43 | 2.0 | 9.0 | 0.00 | 0.97 | 0.00 | 63 | 1021.2 |
| 20260502162326 | 68 | 23 | 3.0 | 6.0 | 0.00 | 1.11 | 0.00 | 64 | 1021.2 |
| 20260502161830 | 67 | 322 | 1.0 | 9.0 | 0.00 | 1.11 | 0.00 | 68 | 1021.2 |
| 20260502161359 | 67 | 355 | 2.0 | 9.0 | 0.00 | 1.11 | 0.00 | 67 | 1021.2 |
| 20260502160822 | 66 | 102 | 3.0 | 12.0 | 0.00 | 1.11 | 0.00 | 66 | 1021.2 |
| 20260502160332 | 66 | 9 | 3.0 | 12.0 | 0.00 | 1.11 | 0.00 | 68 | 1021.1 |
| 20260502152326 | 64 | 331 | 3.0 | 9.0 | 0.00 | 0.00 | 0.00 | 73 | 1021.0 |
| 20260502151831 | 64 | 43 | 2.0 | 11.0 | 0.00 | 0.00 | 0.00 | 74 | 1021.0 |
| 20260502151337 | 64 | 39 | 4.0 | 11.0 | 0.00 | 0.00 | 0.00 | 75 | 1021.0 |
| 20260502150841 | 63 | 61 | 3.0 | 10.0 | 0.00 | 0.00 | 0.00 | 75 | 1021.0 |
| 20260502150329 | 63 | 351 | 3.0 | 9.0 | 0.00 | 0.00 | 0.00 | 76 | 1020.9 |
| 20260502130323 | 55 | 335 | 2.0 | 3.0 | 0.00 | 0.00 | 0.00 | 93 | 1019.7 |
| 20260502123327 | 53 | 348 | 0.0 | 3.0 | 0.00 | 0.00 | 0.00 | 95 | 1019.1 |
| 20260502122832 | 53 | 350 | 1.0 | 3.0 | 0.00 | 0.00 | 0.00 | 95 | 1019.1 |
| 20260502122338 | 53 | 323 | 1.0 | 2.0 | 0.00 | 0.00 | 0.00 | 95 | 1019.1 |
| 20260502121844 | 53 | 305 | 0.0 | 1.0 | 0.00 | 0.00 | 0.00 | 95 | 1019.1 |
| 20260502121328 | 52 | 305 | 0.0 | 1.0 | 0.00 | 0.00 | 0.00 | 95 | 1019.1 |
| 20260502120832 | 52 | 305 | 0.0 | 3.0 | 0.00 | 0.00 | 0.00 | 95 | 1019.1 |
| 20260502120356 | 52 | 305 | 2.0 | 3.0 | 0.00 | 0.00 | 0.00 | 95 | 1018.8 |
| 20260502115819 | 52 | 295 | 0.0 | 1.0 | 0.00 | 0.00 | 0.00 | 95 | 1018.8 |
| 20260502115329 | 52 | 295 | 0.0 | 1.0 | 0.00 | 0.00 | 0.00 | 95 | 1018.8 |
| 20260502114838 | 52 | 295 | 0.0 | 2.0 | 0.00 | 0.00 | 0.00 | 95 | 1018.6 |
| 20260502114324 | 52 | 295 | 1.0 | 2.0 | 0.00 | 0.00 | 0.00 | 95 | 1018.6 |
| 20260502113829 | 52 | 305 | 0.0 | 2.0 | 0.00 | 0.00 | 0.00 | 94 | 1018.6 |
| 20260502113334 | 52 | 305 | 1.0 | 2.0 | 0.00 | 0.00 | 0.00 | 95 | 1018.5 |
| 20260502112840 | 53 | 305 | 0.0 | 2.0 | 0.00 | 0.00 | 0.00 | 94 | 1018.5 |
| 20260502112325 | 53 | 305 | 0.0 | 2.0 | 0.00 | 0.00 | 0.00 | 94 | 1018.5 |
| 20260502111828 | 53 | 305 | 0.0 | 3.0 | 0.00 | 0.00 | 0.00 | 94 | 1018.5 |
| 20260502111334 | 53 | 1 | 1.0 | 3.0 | 0.00 | 0.00 | 0.00 | 94 | 1018.5 |
| 20260502110840 | 53 | 319 | 2.0 | 3.0 | 0.00 | 0.00 | 0.00 | 94 | 1018.5 |
| 20260502110325 | 53 | 297 | 1.0 | 3.0 | 0.00 | 0.00 | 0.00 | 94 | 1018.2 |
| 20260502105829 | 53 | 324 | 1.0 | 4.0 | 0.00 | 0.00 | 0.00 | 94 | 1018.2 |
| 20260502105341 | 53 | 319 | 0.0 | 4.0 | 0.00 | 0.00 | 0.00 | 94 | 1018.2 |
| 20260502104826 | 53 | 314 | 1.0 | 3.0 | 0.00 | 0.00 | 0.00 | 94 | 1018.0 |
| 20260502104332 | 53 | 357 | 1.0 | 3.0 | 0.00 | 0.00 | 0.00 | 94 | 1018.0 |
| 20260502103837 | 53 | 333 | 1.0 | 3.0 | 0.00 | 0.00 | 0.00 | 94 | 1018.0 |
| 20260502103346 | 53 | 6 | 1.0 | 3.0 | 0.00 | 0.00 | 0.00 | 94 | 1018.0 |
| 20260502102830 | 53 | 355 | 2.0 | 3.0 | 0.00 | 0.00 | 0.00 | 94 | 1018.0 |
| 20260502102333 | 53 | 279 | 0.0 | 3.0 | 0.00 | 0.00 | 0.00 | 94 | 1018.0 |
| 20260502101901 | 53 | 6 | 1.0 | 3.0 | 0.00 | 0.00 | 0.00 | 94 | 1017.5 |
| 20260502101324 | 53 | 358 | 1.0 | 3.0 | 0.00 | 0.00 | 0.00 | 94 | 1017.5 |
| 20260502100829 | 53 | 359 | 1.0 | 2.0 | 0.00 | 0.00 | 0.00 | 93 | 1017.5 |
| 20260502100335 | 53 | 9 | 1.0 | 2.0 | 0.00 | 0.00 | 0.00 | 93 | 1017.5 |
| 20260502091335 | 54 | 31 | 0.0 | 2.0 | 0.00 | 0.00 | 0.00 | 91 | 1016.7 |
| 20260502090902 | 54 | 324 | 0.0 | 2.0 | 0.00 | 0.00 | 0.00 | 91 | 1016.7 |
| 20260502090327 | 54 | 91 | 0.0 | 4.0 | 0.00 | 0.00 | 0.00 | 91 | 1016.4 |
| 20260502071323 | 55 | 94 | 0.0 | 4.0 | 0.00 | 0.00 | 0.00 | 93 | 1016.8 |
| 20260502070830 | 55 | 47 | 1.0 | 4.0 | 0.00 | 0.00 | 0.00 | 93 | 1016.8 |
| 20260502070337 | 55 | 66 | 1.0 | 5.0 | 0.00 | 0.00 | 0.00 | 93 | 1016.5 |
| 20260502065821 | 55 | 59 | 2.0 | 5.0 | 0.00 | 0.00 | 0.00 | 93 | 1016.5 |
| 20260502065327 | 55 | 317 | 2.0 | 6.0 | 0.00 | 0.00 | 0.00 | 94 | 1016.5 |
| 20260502064833 | 55 | 346 | 1.0 | 6.0 | 0.00 | 0.00 | 0.00 | 94 | 1016.4 |
| 20260502064324 | 55 | 99 | 2.0 | 6.0 | 0.00 | 0.00 | 0.00 | 94 | 1016.4 |
| 20260502063830 | 55 | 78 | 1.0 | 6.0 | 0.00 | 0.00 | 0.00 | 94 | 1016.4 |
| 20260502063336 | 55 | 50 | 2.0 | 8.0 | 0.00 | 0.00 | 0.00 | 94 | 1016.4 |
| 20260502062823 | 55 | 357 | 3.0 | 8.0 | 0.00 | 0.00 | 0.00 | 94 | 1016.4 |
| 20260502062329 | 55 | 85 | 2.0 | 7.0 | 0.00 | 0.00 | 0.00 | 94 | 1016.4 |
| 20260502061816 | 55 | 85 | 1.0 | 6.0 | 0.00 | 0.00 | 0.00 | 94 | 1016.3 |
| 20260502060832 | 55 | 351 | 2.0 | 6.0 | 0.00 | 0.00 | 0.00 | 94 | 1016.3 |
| 20260502060339 | 55 | 50 | 2.0 | 6.0 | 0.00 | 0.00 | 0.00 | 94 | 1016.4 |
| 20260502055825 | 55 | 60 | 3.0 | 7.0 | 0.00 | 0.00 | 0.00 | 95 | 1016.4 |
| 20260502055335 | 55 | 66 | 2.0 | 7.0 | 0.00 | 0.00 | 0.00 | 95 | 1016.4 |
| 20260502054823 | 55 | 110 | 2.0 | 5.0 | 0.00 | 0.00 | 0.00 | 95 | 1016.2 |
| 20260502054332 | 55 | 33 | 2.0 | 6.0 | 0.00 | 0.00 | 0.00 | 95 | 1016.2 |
| 20260502053820 | 55 | 341 | 3.0 | 6.0 | 0.00 | 0.00 | 0.00 | 95 | 1016.2 |
| 20260502053325 | 55 | 46 | 3.0 | 9.0 | 0.00 | 0.00 | 0.00 | 95 | 1016.2 |
| 20260502052852 | 55 | 288 | 3.0 | 9.0 | 0.00 | 0.00 | 0.00 | 95 | 1016.2 |
| 20260502052338 | 55 | 346 | 2.0 | 10.0 | 0.00 | 0.00 | 0.00 | 95 | 1016.2 |
| 20260502051824 | 55 | 11 | 3.0 | 6.0 | 0.00 | 0.00 | 0.00 | 96 | 1016.0 |
| 20260502051334 | 55 | 87 | 3.0 | 6.0 | 0.00 | 0.00 | 0.00 | 96 | 1016.0 |
| 20260502050824 | 56 | 51 | 2.0 | 8.0 | 0.00 | 0.00 | 0.00 | 96 | 1016.0 |
| 20260502050335 | 55 | 20 | 3.0 | 8.0 | 0.00 | 0.00 | 3.81 | 96 | 1015.9 |
| 20260502045821 | 56 | 21 | 3.0 | 6.0 | 0.00 | 0.00 | 3.81 | 96 | 1015.9 |
| 20260502045348 | 56 | 22 | 3.0 | 6.0 | 0.00 | 0.00 | 3.81 | 96 | 1015.9 |
| 20260502044835 | 56 | 33 | 2.0 | 8.0 | 0.00 | 0.00 | 3.81 | 96 | 1016.0 |
| 20260502044322 | 56 | 12 | 4.0 | 8.0 | 0.00 | 0.00 | 3.81 | 96 | 1016.0 |
| 20260502043828 | 56 | 66 | 3.0 | 6.0 | 0.00 | 0.00 | 3.81 | 96 | 1016.0 |
| 20260502043335 | 56 | 308 | 2.0 | 6.0 | 0.00 | 0.00 | 3.81 | 96 | 1015.9 |
| 20260502042821 | 56 | 36 | 2.0 | 6.0 | 0.00 | 0.00 | 3.81 | 96 | 1015.9 |
| 20260502042350 | 55 | 334 | 2.0 | 10.0 | 0.00 | 0.00 | 3.81 | 96 | 1015.9 |
| 20260502041835 | 55 | 42 | 4.0 | 10.0 | 0.00 | 0.00 | 3.81 | 96 | 1016.0 |
| 20260502041322 | 56 | 217 | 1.0 | 10.0 | 0.00 | 0.00 | 3.81 | 96 | 1016.0 |
| 20260502040834 | 55 | 358 | 4.0 | 7.0 | 0.00 | 0.00 | 3.81 | 96 | 1015.9 |
| 20260502040320 | 56 | 37 | 3.0 | 7.0 | 0.00 | 0.00 | 3.81 | 96 | 1016.1 |
| 20260502035825 | 56 | 353 | 3.0 | 7.0 | 0.00 | 0.00 | 3.81 | 96 | 1016.1 |
| 20260502035352 | 55 | 340 | 3.0 | 8.0 | 0.00 | 0.00 | 3.81 | 96 | 1016.1 |
| 20260502034836 | 56 | 288 | 3.0 | 13.0 | 0.00 | 0.00 | 3.81 | 96 | 1015.9 |
| 20260502034321 | 55 | 28 | 4.0 | 13.0 | 0.00 | 0.00 | 3.81 | 96 | 1015.9 |
| 20260502033828 | 56 | 342 | 3.0 | 11.0 | 0.00 | 0.00 | 3.81 | 97 | 1015.9 |
| 20260502033335 | 55 | 11 | 3.0 | 6.0 | 0.00 | 0.00 | 3.81 | 97 | 1015.6 |
| 20260502032822 | 55 | 292 | 3.0 | 7.0 | 0.00 | 0.00 | 3.81 | 97 | 1015.6 |
| 20260502032329 | 55 | 307 | 3.0 | 10.0 | 0.00 | 0.00 | 3.81 | 97 | 1015.6 |
| 20260502031822 | 56 | 308 | 3.0 | 13.0 | 0.01 | 0.00 | 3.81 | 97 | 1015.4 |
| 20260502031350 | 56 | 19 | 3.0 | 13.0 | 0.02 | 0.00 | 3.81 | 97 | 1015.4 |
| 20260502030836 | 56 | 42 | 2.0 | 5.0 | 0.02 | 0.00 | 3.81 | 97 | 1015.4 |
| 20260502030322 | 56 | 312 | 1.0 | 9.0 | 0.03 | 0.00 | 3.81 | 97 | 1014.9 |
| 20260502025850 | 56 | 51 | 4.0 | 9.0 | 0.04 | 0.00 | 3.81 | 97 | 1014.9 |
| 20260502025335 | 56 | 353 | 3.0 | 8.0 | 0.05 | 0.00 | 3.81 | 97 | 1014.9 |
| 20260502024824 | 56 | 15 | 2.0 | 7.0 | 0.06 | 0.00 | 3.81 | 97 | 1014.6 |
| 20260502024351 | 56 | 325 | 3.0 | 9.0 | 0.06 | 0.00 | 3.81 | 97 | 1014.6 |
| 20260502023839 | 56 | 46 | 4.0 | 9.0 | 0.07 | 0.00 | 3.81 | 97 | 1014.6 |
| 20260502023326 | 56 | 89 | 3.0 | 7.0 | 0.07 | 0.00 | 3.81 | 97 | 1014.5 |
| 20260502022832 | 56 | 322 | 3.0 | 5.0 | 0.08 | 0.00 | 3.81 | 97 | 1014.5 |
| 20260502022319 | 56 | 77 | 1.0 | 5.0 | 0.08 | 0.00 | 3.81 | 97 | 1014.5 |
| 20260502021830 | 56 | 300 | 3.0 | 5.0 | 0.09 | 0.00 | 3.80 | 97 | 1014.2 |
| 20260502021356 | 57 | 345 | 3.0 | 5.0 | 0.10 | 0.00 | 3.79 | 97 | 1014.2 |
| 20260502020821 | 57 | 37 | 2.0 | 7.0 | 0.12 | 0.00 | 3.79 | 97 | 1014.2 |
| 20260502020328 | 57 | 333 | 2.0 | 7.0 | 0.12 | 0.00 | 3.78 | 97 | 1014.4 |
| 20260502015834 | 57 | 359 | 2.0 | 5.0 | 0.12 | 0.00 | 3.77 | 97 | 1014.4 |
| 20260502015319 | 57 | 359 | 3.0 | 9.0 | 0.11 | 0.00 | 3.76 | 97 | 1014.4 |
| 20260502014829 | 57 | 98 | 3.0 | 9.0 | 0.10 | 0.00 | 3.75 | 97 | 1014.3 |
| 20260502014335 | 57 | 42 | 3.0 | 7.0 | 0.11 | 0.00 | 3.75 | 97 | 1014.3 |
| 20260502013820 | 58 | 332 | 2.0 | 6.0 | 0.10 | 0.00 | 3.74 | 97 | 1014.3 |
| 20260502013326 | 58 | 329 | 1.0 | 7.0 | 0.11 | 0.00 | 3.74 | 97 | 1013.4 |
| 20260502012831 | 58 | 336 | 2.0 | 7.0 | 0.11 | 0.00 | 3.73 | 97 | 1013.4 |
| 20260502012321 | 58 | 12 | 2.0 | 7.0 | 0.11 | 0.00 | 3.73 | 97 | 1013.4 |
| 20260502011828 | 58 | 99 | 1.0 | 7.0 | 0.10 | 0.00 | 3.71 | 97 | 1013.6 |
| 20260502011335 | 58 | 106 | 2.0 | 6.0 | 0.08 | 0.00 | 3.69 | 97 | 1013.6 |
| 20260502010841 | 59 | 6 | 2.0 | 5.0 | 0.06 | 0.00 | 3.67 | 97 | 1013.6 |